Date String (YYYY-MM-DD hh:mm:ss) UTC,Instrument flags,Ambient pressure (hPa),Sample flow (lpm),Bypass flow (lpm),Sample temperature (°C),Ambient temperature (°C),ASC tube jacket temperature (°C),LED temperature (°C),Box temperature (°C),Sample RH (%),Span deviation,Mass concentration (μg/m³),Mass concentration (μg/m³),Mass concentration (μg/m³)
DateTimeUTC,F1_M11,P_M11,Q1_M11,Q2_M11,T1_M11,T2_M11,T3_M11,T4_M11,T5_M11,U1_M11,ZSPAN_M11,X0_M11,X2_M11,X1_M11
2022-02-09 04:00:00,,0825.9,4.99,0.00,23.6,22.5,00.0,32.6,25.3,05.5,0000.0,0002.59,0001.04,0000.70
2022-02-09 04:01:00,,0825.8,5.01,0.00,23.6,22.5,00.0,32.6,25.3,05.4,0000.0,0002.35,0001.01,0000.70
2022-02-09 04:02:00,,0825.8,4.99,0.00,23.6,22.5,00.0,32.6,25.2,05.6,0000.0,0002.12,0001.02,0000.70
2022-02-09 04:03:00,,0825.8,5.00,0.00,23.5,22.5,00.0,32.6,25.2,05.5,0000.0,0003.31,0001.03,0000.70
2022-02-09 04:04:00,,0825.7,5.00,0.00,23.5,22.5,00.0,32.6,25.2,05.5,0000.0,0004.11,0001.01,0000.71
2022-02-09 04:05:00,,0825.7,5.00,0.00,23.5,22.4,00.0,32.5,25.3,05.4,0000.0,0004.21,0001.05,0000.71
2022-02-09 04:06:00,,0825.7,5.00,0.00,23.5,22.4,00.0,32.5,25.2,05.4,0000.0,0004.34,0001.07,0000.71
2022-02-09 04:07:00,,0825.7,5.00,0.00,23.5,22.4,00.0,32.5,25.2,05.5,0000.0,0004.44,0001.08,0000.71
2022-02-09 04:08:00,,0825.7,4.99,0.00,23.5,22.4,00.0,32.5,25.2,05.5,0000.0,0004.43,0001.08,0000.71
2022-02-09 04:09:00,,0825.6,5.01,0.00,23.5,22.4,00.0,32.5,25.2,05.6,0000.0,0004.50,0001.10,0000.70
2022-02-09 04:10:00,,0825.6,4.99,0.00,23.4,22.3,00.0,32.5,25.1,05.4,0000.0,0004.86,0001.14,0000.69
2022-02-09 04:11:00,,0825.6,5.01,0.00,23.4,22.3,00.0,32.5,25.1,05.3,0000.0,0004.95,0001.16,0000.68
2022-02-09 04:12:00,,0825.6,4.99,0.00,23.4,22.3,00.0,32.4,25.1,05.4,0000.0,0005.12,0001.17,0000.68
2022-02-09 04:13:00,,0825.6,4.99,0.00,23.4,22.3,00.0,32.4,25.1,05.3,0000.0,0005.29,0001.16,0000.68
2022-02-09 04:14:00,,0825.6,5.00,0.00,23.4,22.2,00.0,32.4,25.1,05.4,0000.0,0004.27,0001.14,0000.67
2022-02-09 04:15:00,,0825.5,5.01,0.00,23.3,22.2,00.0,32.4,25.1,05.4,0000.0,0003.00,0001.12,0000.65
2022-02-09 04:16:00,,0825.5,4.99,0.00,23.3,22.1,00.0,32.4,25.0,05.3,0000.0,0003.05,0001.12,0000.64
2022-02-09 04:17:00,,0825.5,5.01,0.00,23.3,22.1,00.0,32.4,25.0,05.3,0000.0,0003.10,0001.11,0000.63
2022-02-09 04:18:00,,0825.5,4.99,0.00,23.3,22.1,00.0,32.3,25.0,05.3,0000.0,0003.04,0001.11,0000.63
2022-02-09 04:19:00,,0825.5,5.02,0.00,23.3,22.1,00.0,32.3,25.0,05.1,0000.0,0003.08,0001.10,0000.63
2022-02-09 04:20:00,,0825.5,4.98,0.00,23.3,22.1,00.0,32.3,25.0,05.2,0000.0,0003.08,0001.08,0000.63
2022-02-09 04:21:00,,0825.6,5.01,0.00,23.3,22.1,00.0,32.3,25.0,05.3,0000.0,0002.69,0001.01,0000.63
2022-02-09 04:22:00,,0825.6,5.00,0.00,23.2,22.1,00.0,32.3,24.9,05.4,0000.0,0002.44,0000.95,0000.64
2022-02-09 04:23:00,,0825.5,4.99,0.00,23.2,22.1,00.0,32.3,24.9,05.3,0000.0,0002.33,0000.97,0000.64
2022-02-09 04:24:00,,0825.5,5.02,0.00,23.2,22.1,00.0,32.2,24.9,05.3,0000.0,0002.03,0000.98,0000.65
2022-02-09 04:25:00,,0825.5,4.98,0.00,23.2,22.1,00.0,32.2,24.9,05.3,0000.0,0002.29,0000.99,0000.66
2022-02-09 04:26:00,,0825.5,5.02,0.00,23.2,22.1,00.0,32.2,24.9,05.3,0000.0,0002.68,0001.03,0000.66
2022-02-09 04:27:00,,0825.4,4.99,0.00,23.1,22.0,00.0,32.2,24.9,05.3,0000.0,0002.65,0001.01,0000.67
2022-02-09 04:28:00,,0825.5,4.99,0.00,23.1,22.0,00.0,32.2,24.9,05.1,0000.0,0003.23,0001.02,0000.68
2022-02-09 04:29:00,,0825.4,5.01,0.00,23.1,22.0,00.0,32.2,24.9,05.1,0000.0,0003.34,0001.01,0000.67
2022-02-09 04:30:00,,0825.4,4.99,0.00,23.1,22.0,00.0,32.1,24.9,05.2,0000.0,0003.35,0001.03,0000.67
2022-02-09 04:31:00,,0825.4,5.01,0.00,23.1,21.9,00.0,32.1,24.9,05.1,0000.0,0003.27,0001.02,0000.67
2022-02-09 04:32:00,,0825.5,4.99,0.00,23.1,21.9,00.0,32.1,24.9,05.2,0000.0,0003.26,0001.05,0000.68
2022-02-09 04:33:00,,0825.5,5.00,0.00,23.1,21.9,00.0,32.1,24.8,05.2,0000.0,0003.25,0001.06,0000.69
2022-02-09 04:34:00,,0825.5,5.01,0.00,23.1,21.9,00.0,32.1,24.8,05.3,0000.0,0003.24,0001.05,0000.68
2022-02-09 04:35:00,,0825.6,4.99,0.00,23.0,21.9,00.0,32.1,24.8,05.3,0000.0,0003.23,0001.04,0000.66
2022-02-09 04:36:00,,0825.5,5.00,0.00,23.0,21.9,00.0,32.0,24.7,05.1,0000.0,0002.96,0001.04,0000.66
2022-02-09 04:37:00,,0825.5,4.99,0.00,23.0,21.9,00.0,32.0,24.7,05.2,0000.0,0002.60,0001.01,0000.66
2022-02-09 04:38:00,,0825.6,5.01,0.00,22.9,21.9,00.0,32.0,24.6,05.2,0000.0,0003.07,0001.02,0000.66
2022-02-09 04:39:00,,0825.6,4.99,0.00,22.9,21.9,00.0,32.0,24.6,05.5,0000.0,0003.05,0001.01,0000.67
2022-02-09 04:40:00,,0825.6,5.01,0.00,22.9,21.9,00.0,32.0,24.5,05.5,0000.0,0002.83,0000.99,0000.66
2022-02-09 04:41:00,,0825.6,4.98,0.00,22.9,21.9,00.0,32.0,24.5,05.4,0000.0,0002.76,0000.96,0000.66
2022-02-09 04:42:00,,0825.5,5.00,0.00,22.9,21.9,00.0,32.0,24.4,05.4,0000.0,0002.76,0000.97,0000.66
2022-02-09 04:43:00,,0825.5,5.00,0.00,22.9,21.9,00.0,32.0,24.5,05.2,0000.0,0002.81,0000.97,0000.65
2022-02-09 04:44:00,,0825.5,5.00,0.00,22.9,21.8,00.0,32.0,24.6,05.1,0000.0,0002.97,0001.01,0000.64
2022-02-09 04:45:00,,0825.6,5.00,0.00,22.8,21.8,00.0,31.9,24.5,05.2,0000.0,0002.93,0000.99,0000.64
2022-02-09 04:46:00,,0825.4,5.01,0.00,22.8,21.8,00.0,31.9,24.6,05.4,0000.0,0002.89,0000.98,0000.65
2022-02-09 04:47:00,,0825.5,4.99,0.00,22.8,21.8,00.0,31.9,24.6,05.3,0000.0,0002.89,0000.98,0000.65
2022-02-09 04:48:00,,0825.5,5.00,0.00,22.8,21.8,00.0,31.9,24.5,05.3,0000.0,0002.88,0000.97,0000.65
2022-02-09 04:49:00,,0825.5,4.99,0.00,22.8,21.8,00.0,31.9,24.5,05.3,0000.0,0002.53,0000.94,0000.65
2022-02-09 04:50:00,,0825.5,5.01,0.00,22.8,21.7,00.0,31.9,24.5,05.2,0000.0,0001.51,0000.90,0000.65
2022-02-09 04:51:00,,0825.5,5.00,0.00,22.8,21.7,00.0,31.9,24.5,05.2,0000.0,0001.68,0000.93,0000.65
2022-02-09 04:52:00,,0825.6,4.98,0.00,22.8,21.8,00.0,31.9,24.5,05.2,0000.0,0001.72,0000.93,0000.65
2022-02-09 04:53:00,,0825.5,5.01,0.00,22.8,21.8,00.0,31.8,24.5,05.4,0000.0,0001.83,0000.96,0000.66
2022-02-09 04:54:00,,0825.4,5.00,0.00,22.7,21.8,00.0,31.8,24.5,05.2,0000.0,0002.07,0000.98,0000.66
2022-02-09 04:55:00,,0825.5,4.99,0.00,22.7,21.7,00.0,31.8,24.4,05.1,0000.0,0002.00,0000.97,0000.66
2022-02-09 04:56:00,,0825.4,5.01,0.00,22.7,21.7,00.0,31.8,24.4,05.4,0000.0,0002.10,0000.98,0000.67
2022-02-09 04:57:00,,0825.6,5.00,0.00,22.7,21.6,00.0,31.8,24.4,05.4,0000.0,0003.11,0001.03,0000.67
2022-02-09 04:58:00,,0825.5,5.00,0.00,22.7,21.6,00.0,31.8,24.3,05.6,0000.0,0003.05,0001.02,0000.67
2022-02-09 04:59:00,,0825.5,5.00,0.00,22.7,21.6,00.0,31.8,24.3,05.6,0000.0,0003.02,0001.01,0000.68
